Check out our new BloomSky Weather System.

Active alerts


No alerts


Thunder radar  blitzortung!


Rain radar more information rain snow radar


Visit our other weather sites:

Template documentation
and downloads

And another site



Weather Underground History page Text

Daily Summary for April 28, 2017 Units:  English    Metric   Both
« Previous Day
Next Day »
Daily Weekly Monthly Yearly Custom
  High: Low: Average:
Temperature: 90.9 °F 72.3 °F 81.5 °F
Dew Point: 77.0 °F 67.6 °F 74.1 °F
Humidity: 90 % 61 % 79 %
Wind Speed: 15.0 mph 1.0 mph 7 mph
Wind Gust: 22.0 mph - -
Wind:- - SSE
Pressure: 29.68 in 29.59 in -
Precipitation: 0.00 in    
Historical Graphs
 
 
Tabular Data for April 28, 2017
Time Temperature Dew Point Pressure Wind Wind Speed Wind Gust Humidity Rainfall Rate (Hourly)
00:02 72.3 °F 67.6 °F 29.66 in ESE 5.0 mph 10.0 mph 85 % 0.00 in
00:07 72.3 °F 67.6 °F 29.65 in ESE 4.0 mph 8.0 mph 85 % 0.00 in
00:12 72.5 °F 67.8 °F 29.66 in ESE 6.0 mph 9.0 mph 85 % 0.00 in
00:17 72.7 °F 67.8 °F 29.66 in South 3.0 mph 10.0 mph 85 % 0.00 in
00:22 72.7 °F 67.8 °F 29.65 in SSW 5.0 mph 10.0 mph 85 % 0.00 in
00:27 72.9 °F 68.0 °F 29.65 in SSE 4.0 mph 10.0 mph 85 % 0.00 in
00:32 72.9 °F 68.0 °F 29.65 in SSW 3.0 mph 8.0 mph 85 % 0.00 in
00:37 73.0 °F 68.5 °F 29.65 in SSE 6.0 mph 8.0 mph 86 % 0.00 in
00:42 73.0 °F 68.5 °F 29.65 in East 5.0 mph 8.0 mph 86 % 0.00 in
00:47 73.2 °F 68.7 °F 29.65 in SE 4.0 mph 8.0 mph 86 % 0.00 in
00:52 73.2 °F 68.7 °F 29.65 in SSE 4.0 mph 8.0 mph 86 % 0.00 in
00:57 73.2 °F 68.7 °F 29.65 in ESE 1.0 mph 8.0 mph 86 % 0.00 in
01:02 73.2 °F 68.7 °F 29.65 in SE 3.0 mph 6.0 mph 86 % 0.00 in
01:07 73.2 °F 68.7 °F 29.65 in SE 3.0 mph 6.0 mph 86 % 0.00 in
01:12 73.2 °F 68.7 °F 29.65 in SSE 2.0 mph 6.0 mph 86 % 0.00 in
01:15 73.4 °F 68.9 °F 29.64 in ESE 2.0 mph 6.0 mph 86 % 0.00 in
01:20 73.4 °F 68.9 °F 29.64 in ESE 2.0 mph 6.0 mph 86 % 0.00 in
01:25 73.6 °F 69.1 °F 29.64 in SE 3.0 mph 6.0 mph 86 % 0.00 in
01:30 73.6 °F 69.1 °F 29.64 in SE 3.0 mph 6.0 mph 86 % 0.00 in
01:35 73.6 °F 69.1 °F 29.63 in South 2.0 mph 6.0 mph 86 % 0.00 in
01:40 73.8 °F 69.6 °F 29.63 in ESE 3.0 mph 8.0 mph 87 % 0.00 in
01:45 73.8 °F 69.6 °F 29.63 in SE 2.0 mph 8.0 mph 87 % 0.00 in
01:50 73.9 °F 69.8 °F 29.63 in SSE 3.0 mph 8.0 mph 87 % 0.00 in
01:55 73.9 °F 69.8 °F 29.62 in SE 2.0 mph 5.0 mph 87 % 0.00 in
02:00 73.9 °F 69.8 °F 29.62 in ESE 4.0 mph 5.0 mph 87 % 0.00 in
02:05 73.9 °F 69.8 °F 29.62 in ESE 3.0 mph 7.0 mph 87 % 0.00 in
02:10 74.1 °F 70.3 °F 29.62 in SE 3.0 mph 7.0 mph 88 % 0.00 in
02:15 74.1 °F 70.3 °F 29.62 in SSE 4.0 mph 7.0 mph 88 % 0.00 in
02:20 74.3 °F 70.5 °F 29.62 in ESE 3.0 mph 6.0 mph 88 % 0.00 in
02:25 74.3 °F 70.5 °F 29.62 in SSE 3.0 mph 6.0 mph 88 % 0.00 in
02:30 74.5 °F 70.7 °F 29.62 in SSE 2.0 mph 6.0 mph 88 % 0.00 in
02:35 74.5 °F 70.7 °F 29.61 in ESE 2.0 mph 6.0 mph 88 % 0.00 in
02:40 74.5 °F 70.7 °F 29.61 in SE 2.0 mph 6.0 mph 88 % 0.00 in
02:45 74.5 °F 70.7 °F 29.61 in SE 1.0 mph 5.0 mph 88 % 0.00 in
02:50 74.7 °F 70.9 °F 29.61 in SE 2.0 mph 4.0 mph 88 % 0.00 in
02:55 74.7 °F 70.9 °F 29.61 in ESE 1.0 mph 5.0 mph 88 % 0.00 in
03:00 74.7 °F 71.2 °F 29.61 in ESE 3.0 mph 5.0 mph 89 % 0.00 in
03:05 74.8 °F 71.4 °F 29.61 in SSE 2.0 mph 7.0 mph 89 % 0.00 in
03:10 74.8 °F 71.4 °F 29.60 in SSE 2.0 mph 7.0 mph 89 % 0.00 in
03:15 74.8 °F 71.4 °F 29.60 in East 7.0 mph 7.0 mph 89 % 0.00 in
03:20 75.0 °F 71.6 °F 29.60 in SSE 3.0 mph 7.0 mph 89 % 0.00 in
03:26 75.0 °F 71.6 °F 29.60 in SSE 3.0 mph 7.0 mph 89 % 0.00 in
03:31 75.0 °F 71.6 °F 29.60 in SSE 4.0 mph 8.0 mph 89 % 0.00 in
03:36 75.0 °F 71.6 °F 29.60 in SSE 3.0 mph 9.0 mph 89 % 0.00 in
03:41 75.0 °F 72.0 °F 29.60 in SE 3.0 mph 9.0 mph 90 % 0.00 in
03:46 75.2 °F 72.1 °F 29.60 in SE 3.0 mph 9.0 mph 90 % 0.00 in
03:51 75.2 °F 72.1 °F 29.60 in SSE 3.0 mph 9.0 mph 90 % 0.00 in
03:56 75.4 °F 72.3 °F 29.60 in SSW 2.0 mph 8.0 mph 90 % 0.00 in
04:01 75.4 °F 72.3 °F 29.60 in SE 3.0 mph 8.0 mph 90 % 0.00 in
04:06 75.4 °F 72.3 °F 29.60 in SSE 1.0 mph 8.0 mph 90 % 0.00 in
04:11 75.4 °F 72.3 °F 29.60 in East 3.0 mph 7.0 mph 90 % 0.00 in
04:16 75.4 °F 72.3 °F 29.60 in ESE 5.0 mph 7.0 mph 90 % 0.00 in
04:21 75.6 °F 72.5 °F 29.60 in South 3.0 mph 8.0 mph 90 % 0.00 in
04:25 75.6 °F 72.5 °F 29.60 in SSW 3.0 mph 8.0 mph 90 % 0.00 in
04:30 75.6 °F 72.5 °F 29.60 in ESE 4.0 mph 8.0 mph 90 % 0.00 in
04:36 75.7 °F 72.7 °F 29.60 in SSE 3.0 mph 8.0 mph 90 % 0.00 in
04:41 75.7 °F 72.7 °F 29.60 in ESE 2.0 mph 8.0 mph 90 % 0.00 in
04:46 75.7 °F 72.7 °F 29.60 in SSE 5.0 mph 8.0 mph 90 % 0.00 in
04:51 75.7 °F 72.7 °F 29.60 in SE 3.0 mph 10.0 mph 90 % 0.00 in
04:56 75.7 °F 72.7 °F 29.60 in South 5.0 mph 10.0 mph 90 % 0.00 in
05:01 75.9 °F 72.9 °F 29.61 in SSE 3.0 mph 10.0 mph 90 % 0.00 in
05:06 75.9 °F 72.9 °F 29.61 in SSE 7.0 mph 9.0 mph 90 % 0.00 in
05:11 75.9 °F 72.9 °F 29.60 in SE 7.0 mph 9.0 mph 90 % 0.00 in
05:16 76.1 °F 72.9 °F 29.60 in SSE 3.0 mph 9.0 mph 90 % 0.00 in
05:21 76.3 °F 72.9 °F 29.60 in SSW 3.0 mph 9.0 mph 89 % 0.00 in
05:26 76.3 °F 72.9 °F 29.61 in SE 2.0 mph 10.0 mph 89 % 0.00 in
05:31 76.3 °F 72.9 °F 29.60 in SSE 2.0 mph 10.0 mph 89 % 0.00 in
05:36 76.3 °F 72.9 °F 29.60 in SSE 5.0 mph 10.0 mph 89 % 0.00 in
05:41 76.3 °F 72.9 °F 29.60 in SE 5.0 mph 11.0 mph 89 % 0.00 in
05:46 76.5 °F 72.7 °F 29.60 in SSE 6.0 mph 11.0 mph 88 % 0.00 in
05:51 76.5 °F 72.7 °F 29.60 in SE 4.0 mph 11.0 mph 88 % 0.00 in
05:56 76.5 °F 72.7 °F 29.61 in South 8.0 mph 11.0 mph 88 % 0.00 in
06:01 76.5 °F 73.0 °F 29.61 in SSE 11.0 mph 11.0 mph 89 % 0.00 in
06:06 76.5 °F 72.7 °F 29.60 in South 7.0 mph 14.0 mph 88 % 0.00 in
06:11 76.5 °F 72.7 °F 29.61 in South 10.0 mph 14.0 mph 88 % 0.00 in
06:16 76.5 °F 72.3 °F 29.61 in South 6.0 mph 14.0 mph 87 % 0.00 in
06:21 76.6 °F 72.9 °F 29.61 in SSE 3.0 mph 13.0 mph 88 % 0.00 in
06:26 76.6 °F 72.9 °F 29.61 in SSW 8.0 mph 13.0 mph 88 % 0.00 in
06:31 76.6 °F 72.9 °F 29.61 in ESE 3.0 mph 12.0 mph 88 % 0.00 in
06:36 76.6 °F 72.9 °F 29.62 in SSW 6.0 mph 12.0 mph 88 % 0.00 in
06:41 76.6 °F 72.9 °F 29.62 in South 3.0 mph 12.0 mph 88 % 0.00 in
06:46 76.6 °F 72.5 °F 29.62 in SSW 4.0 mph 12.0 mph 87 % 0.00 in
06:51 76.6 °F 72.5 °F 29.62 in SSE 9.0 mph 12.0 mph 87 % 0.00 in
06:56 76.8 °F 72.7 °F 29.62 in SSE 7.0 mph 13.0 mph 87 % 0.00 in
07:01 76.8 °F 72.7 °F 29.62 in SSE 3.0 mph 13.0 mph 87 % 0.00 in
07:06 77.0 °F 72.9 °F 29.63 in East 6.0 mph 13.0 mph 87 % 0.00 in
07:11 77.0 °F 72.9 °F 29.63 in ESE 2.0 mph 13.0 mph 87 % 0.00 in
07:16 77.0 °F 72.9 °F 29.63 in SSE 7.0 mph 10.0 mph 87 % 0.00 in
07:21 77.2 °F 73.0 °F 29.63 in SSE 8.0 mph 10.0 mph 87 % 0.00 in
07:26 77.2 °F 73.0 °F 29.63 in SSW 5.0 mph 15.0 mph 87 % 0.00 in
07:31 77.2 °F 73.0 °F 29.64 in SSE 4.0 mph 15.0 mph 87 % 0.00 in
07:36 77.2 °F 73.0 °F 29.64 in SSE 6.0 mph 15.0 mph 87 % 0.00 in
07:41 77.2 °F 73.0 °F 29.64 in SE 8.0 mph 11.0 mph 87 % 0.00 in
07:46 77.4 °F 73.2 °F 29.64 in South 6.0 mph 11.0 mph 87 % 0.00 in
07:51 77.5 °F 73.8 °F 29.64 in South 6.0 mph 11.0 mph 88 % 0.00 in
07:56 77.5 °F 73.4 °F 29.64 in SE 6.0 mph 11.0 mph 87 % 0.00 in
08:01 77.5 °F 73.4 °F 29.64 in ESE 8.0 mph 11.0 mph 87 % 0.00 in
08:06 77.5 °F 73.4 °F 29.64 in South 6.0 mph 12.0 mph 87 % 0.00 in
08:11 77.5 °F 73.8 °F 29.65 in SSE 6.0 mph 14.0 mph 88 % 0.00 in
08:16 77.7 °F 73.6 °F 29.65 in SSE 10.0 mph 14.0 mph 87 % 0.00 in
08:21 77.9 °F 73.8 °F 29.65 in SSE 7.0 mph 17.0 mph 87 % 0.00 in
08:26 78.1 °F 73.9 °F 29.65 in SE 8.0 mph 17.0 mph 87 % 0.00 in
08:31 78.3 °F 74.1 °F 29.65 in SSW 7.0 mph 17.0 mph 87 % 0.00 in
08:36 78.4 °F 73.9 °F 29.65 in SE 8.0 mph 12.0 mph 86 % 0.00 in
08:41 78.6 °F 74.1 °F 29.65 in SSE 6.0 mph 12.0 mph 86 % 0.00 in
08:46 78.8 °F 74.3 °F 29.65 in SSE 11.0 mph 14.0 mph 86 % 0.00 in
08:51 79.0 °F 74.1 °F 29.65 in SSE 4.0 mph 14.0 mph 85 % 0.00 in
08:56 79.3 °F 74.5 °F 29.65 in SE 4.0 mph 14.0 mph 85 % 0.00 in
09:01 79.5 °F 74.3 °F 29.65 in SE 10.0 mph 15.0 mph 84 % 0.00 in
09:06 79.7 °F 74.5 °F 29.65 in South 7.0 mph 15.0 mph 84 % 0.00 in
09:11 79.9 °F 74.7 °F 29.65 in SSE 10.0 mph 17.0 mph 84 % 0.00 in
09:16 79.9 °F 74.7 °F 29.65 in SE 12.0 mph 17.0 mph 84 % 0.00 in
09:21 79.9 °F 74.3 °F 29.65 in SSE 12.0 mph 17.0 mph 83 % 0.00 in
09:26 79.9 °F 74.3 °F 29.65 in SSE 8.0 mph 14.0 mph 83 % 0.00 in
09:31 80.1 °F 74.1 °F 29.65 in ESE 5.0 mph 14.0 mph 82 % 0.00 in
09:36 80.2 °F 74.3 °F 29.65 in South 8.0 mph 16.0 mph 82 % 0.00 in
09:41 80.6 °F 74.3 °F 29.66 in South 7.0 mph 20.0 mph 81 % 0.00 in
09:46 80.8 °F 73.9 °F 29.66 in East 12.0 mph 20.0 mph 80 % 0.00 in
09:51 81.1 °F 73.9 °F 29.65 in SE 6.0 mph 20.0 mph 79 % 0.00 in
09:56 81.1 °F 73.9 °F 29.65 in SSE 6.0 mph 17.0 mph 79 % 0.00 in
10:01 81.7 °F 74.5 °F 29.65 in South 11.0 mph 17.0 mph 79 % 0.00 in
10:06 82.0 °F 74.1 °F 29.65 in SSE 7.0 mph 16.0 mph 77 % 0.00 in
10:11 82.2 °F 74.3 °F 29.65 in ESE 7.0 mph 18.0 mph 77 % 0.00 in
10:16 82.6 °F 74.3 °F 29.65 in SSE 7.0 mph 18.0 mph 76 % 0.00 in
10:21 82.8 °F 74.5 °F 29.66 in SSE 9.0 mph 18.0 mph 76 % 0.00 in
10:24 82.9 °F 73.8 °F 29.66 in SE 7.0 mph 18.0 mph 74 % 0.00 in
10:29 83.5 °F 74.3 °F 29.67 in SE 9.0 mph 17.0 mph 74 % 0.00 in
10:34 83.3 °F 74.5 °F 29.67 in SSE 7.0 mph 17.0 mph 75 % 0.00 in
10:39 83.7 °F 74.8 °F 29.67 in SSE 7.0 mph 17.0 mph 75 % 0.00 in
10:44 83.8 °F 74.3 °F 29.67 in SE 6.0 mph 16.0 mph 73 % 0.00 in
10:49 84.4 °F 75.2 °F 29.67 in ESE 7.0 mph 17.0 mph 74 % 0.00 in
10:54 84.6 °F 75.0 °F 29.67 in ESE 8.0 mph 17.0 mph 73 % 0.00 in
10:59 84.7 °F 75.2 °F 29.67 in SSE 10.0 mph 17.0 mph 73 % 0.00 in
11:04 84.7 °F 74.7 °F 29.68 in SSE 9.0 mph 15.0 mph 72 % 0.00 in
11:09 84.9 °F 74.8 °F 29.68 in South 7.0 mph 15.0 mph 72 % 0.00 in
11:14 85.3 °F 75.2 °F 29.68 in SSW 8.0 mph 18.0 mph 72 % 0.00 in
11:19 85.5 °F 75.0 °F 29.68 in SSW 4.0 mph 18.0 mph 71 % 0.00 in
11:24 85.6 °F 74.7 °F 29.68 in South 12.0 mph 18.0 mph 70 % 0.00 in
11:29 85.8 °F 75.4 °F 29.68 in SSE 11.0 mph 15.0 mph 71 % 0.00 in
11:34 86.2 °F 75.2 °F 29.68 in South 6.0 mph 15.0 mph 70 % 0.00 in
11:39 86.2 °F 76.1 °F 29.68 in SSW 6.0 mph 15.0 mph 72 % 0.00 in
11:44 86.4 °F 75.0 °F 29.68 in SSW 6.0 mph 15.0 mph 69 % 0.00 in
11:49 86.4 °F 75.0 °F 29.68 in SSE 13.0 mph 14.0 mph 69 % 0.00 in
11:54 86.4 °F 75.4 °F 29.68 in SSW 6.0 mph 14.0 mph 70 % 0.00 in
11:59 86.5 °F 75.2 °F 29.67 in ESE 7.0 mph 19.0 mph 69 % 0.00 in
12:04 86.7 °F 76.1 °F 29.67 in South 9.0 mph 19.0 mph 71 % 0.00 in
12:09 87.1 °F 75.7 °F 29.67 in South 9.0 mph 19.0 mph 69 % 0.00 in
12:14 87.3 °F 75.4 °F 29.67 in SE 8.0 mph 15.0 mph 68 % 0.00 in
12:19 87.1 °F 75.2 °F 29.67 in South 12.0 mph 15.0 mph 68 % 0.00 in
12:24 87.3 °F 75.4 °F 29.67 in ESE 5.0 mph 15.0 mph 68 % 0.00 in
12:29 87.6 °F 75.7 °F 29.67 in ESE 12.0 mph 15.0 mph 68 % 0.00 in
12:34 88.0 °F 76.5 °F 29.67 in SSE 6.0 mph 15.0 mph 69 % 0.00 in
12:39 88.0 °F 75.6 °F 29.67 in South 13.0 mph 15.0 mph 67 % 0.00 in
12:44 88.0 °F 76.1 °F 29.67 in ESE 5.0 mph 17.0 mph 68 % 0.00 in
12:49 88.2 °F 75.7 °F 29.66 in SSE 9.0 mph 17.0 mph 67 % 0.00 in
12:54 88.2 °F 76.3 °F 29.66 in SE 8.0 mph 17.0 mph 68 % 0.00 in
12:59 88.2 °F 76.3 °F 29.66 in SE 14.0 mph 16.0 mph 68 % 0.00 in
13:04 88.2 °F 75.4 °F 29.66 in SE 8.0 mph 18.0 mph 66 % 0.00 in
13:09 88.0 °F 75.6 °F 29.66 in ESE 13.0 mph 19.0 mph 67 % 0.00 in
13:14 88.2 °F 75.4 °F 29.65 in South 8.0 mph 19.0 mph 66 % 0.00 in
13:19 88.3 °F 75.6 °F 29.65 in SE 7.0 mph 19.0 mph 66 % 0.00 in
13:24 88.7 °F 75.9 °F 29.65 in SSE 5.0 mph 17.0 mph 66 % 0.00 in
13:29 89.1 °F 76.3 °F 29.65 in SSW 8.0 mph 17.0 mph 66 % 0.00 in
13:34 89.2 °F 75.9 °F 29.65 in SSE 5.0 mph 17.0 mph 65 % 0.00 in
13:39 89.2 °F 75.9 °F 29.65 in SE 10.0 mph 17.0 mph 65 % 0.00 in
13:44 89.1 °F 75.7 °F 29.64 in SE 11.0 mph 17.0 mph 65 % 0.00 in
13:49 89.4 °F 75.6 °F 29.64 in ESE 11.0 mph 17.0 mph 64 % 0.00 in
13:54 89.4 °F 75.2 °F 29.64 in SSW 6.0 mph 16.0 mph 63 % 0.00 in
13:59 89.8 °F 75.9 °F 29.64 in South 7.0 mph 17.0 mph 64 % 0.00 in
14:04 90.0 °F 76.1 °F 29.64 in SE 6.0 mph 18.0 mph 64 % 0.00 in
14:09 90.1 °F 75.9 °F 29.64 in ESE 12.0 mph 18.0 mph 63 % 0.00 in
14:14 90.0 °F 75.7 °F 29.64 in SSE 8.0 mph 18.0 mph 63 % 0.00 in
14:19 89.8 °F 75.9 °F 29.64 in ESE 9.0 mph 17.0 mph 64 % 0.00 in
14:24 90.0 °F 76.1 °F 29.64 in SE 11.0 mph 18.0 mph 64 % 0.00 in
14:29 90.1 °F 76.3 °F 29.64 in SE 12.0 mph 18.0 mph 64 % 0.00 in
14:34 90.3 °F 75.6 °F 29.63 in SSW 8.0 mph 18.0 mph 62 % 0.00 in
14:39 90.9 °F 76.5 °F 29.63 in ESE 7.0 mph 15.0 mph 63 % 0.00 in
14:44 90.9 °F 75.6 °F 29.63 in SSE 14.0 mph 15.0 mph 61 % 0.00 in
14:49 90.1 °F 75.4 °F 29.63 in ESE 11.0 mph 17.0 mph 62 % 0.00 in
14:54 90.1 °F 75.9 °F 29.62 in ESE 9.0 mph 19.0 mph 63 % 0.00 in
14:59 90.3 °F 76.5 °F 29.62 in SSE 8.0 mph 19.0 mph 64 % 0.00 in
15:04 90.1 °F 75.9 °F 29.62 in South 8.0 mph 19.0 mph 63 % 0.00 in
15:09 90.1 °F 75.9 °F 29.62 in SSE 5.0 mph 18.0 mph 63 % 0.00 in
15:14 90.3 °F 75.9 °F 29.62 in ESE 13.0 mph 18.0 mph 63 % 0.00 in
15:19 90.3 °F 75.9 °F 29.62 in SE 6.0 mph 18.0 mph 63 % 0.00 in
15:24 90.1 °F 75.9 °F 29.62 in SE 15.0 mph 17.0 mph 63 % 0.00 in
15:29 90.1 °F 76.3 °F 29.62 in SSE 13.0 mph 19.0 mph 64 % 0.00 in
15:34 90.5 °F 76.1 °F 29.61 in South 9.0 mph 20.0 mph 63 % 0.00 in
15:39 90.1 °F 75.9 °F 29.61 in SE 14.0 mph 20.0 mph 63 % 0.00 in
15:44 90.1 °F 76.3 °F 29.61 in SSE 5.0 mph 20.0 mph 64 % 0.00 in
15:49 90.1 °F 76.3 °F 29.61 in SSE 8.0 mph 18.0 mph 64 % 0.00 in
15:54 90.3 °F 76.5 °F 29.61 in South 8.0 mph 17.0 mph 64 % 0.00 in
15:59 90.3 °F 75.9 °F 29.61 in SSE 6.0 mph 18.0 mph 63 % 0.00 in
16:04 90.3 °F 77.0 °F 29.60 in SSE 14.0 mph 18.0 mph 65 % 0.00 in
16:09 90.7 °F 76.8 °F 29.61 in SSE 10.0 mph 18.0 mph 64 % 0.00 in
16:14 90.0 °F 76.1 °F 29.61 in SE 6.0 mph 17.0 mph 64 % 0.00 in
16:19 90.0 °F 76.1 °F 29.61 in South 10.0 mph 17.0 mph 64 % 0.00 in
16:24 89.8 °F 76.5 °F 29.61 in SE 8.0 mph 18.0 mph 65 % 0.00 in
16:29 89.4 °F 76.6 °F 29.60 in SE 13.0 mph 18.0 mph 66 % 0.00 in
16:34 89.4 °F 76.1 °F 29.60 in SE 10.0 mph 19.0 mph 65 % 0.00 in
16:39 89.2 °F 76.8 °F 29.60 in SE 10.0 mph 21.0 mph 67 % 0.00 in
16:44 89.1 °F 76.3 °F 29.60 in ESE 13.0 mph 22.0 mph 66 % 0.00 in
16:49 88.9 °F 76.5 °F 29.60 in ESE 12.0 mph 22.0 mph 67 % 0.00 in
16:54 88.7 °F 76.3 °F 29.60 in SE 13.0 mph 22.0 mph 67 % 0.00 in
16:59 88.5 °F 76.1 °F 29.60 in SSE 9.0 mph 21.0 mph 67 % 0.00 in
17:05 88.3 °F 76.5 °F 29.60 in SE 10.0 mph 21.0 mph 68 % 0.00 in
17:10 88.3 °F 76.5 °F 29.60 in East 10.0 mph 21.0 mph 68 % 0.00 in
17:15 88.0 °F 76.1 °F 29.59 in ESE 9.0 mph 21.0 mph 68 % 0.00 in
17:20 87.4 °F 75.9 °F 29.60 in ESE 14.0 mph 21.0 mph 69 % 0.00 in
17:25 87.4 °F 76.5 °F 29.60 in ESE 3.0 mph 21.0 mph 70 % 0.00 in
17:30 87.6 °F 76.1 °F 29.60 in SSE 7.0 mph 19.0 mph 69 % 0.00 in
17:35 87.3 °F 75.9 °F 29.60 in SW 9.0 mph 19.0 mph 69 % 0.00 in
17:40 86.7 °F 75.7 °F 29.60 in SSE 8.0 mph 19.0 mph 70 % 0.00 in
17:45 86.5 °F 75.9 °F 29.60 in SE 4.0 mph 19.0 mph 71 % 0.00 in
17:50 86.5 °F 75.9 °F 29.60 in ESE 11.0 mph 19.0 mph 71 % 0.00 in
17:55 86.4 °F 75.9 °F 29.60 in SE 7.0 mph 18.0 mph 71 % 0.00 in
18:00 86.4 °F 75.9 °F 29.60 in SE 8.0 mph 18.0 mph 71 % 0.00 in
18:05 86.4 °F 76.3 °F 29.61 in SSE 9.0 mph 19.0 mph 72 % 0.00 in
18:10 86.4 °F 76.3 °F 29.61 in South 10.0 mph 19.0 mph 72 % 0.00 in
18:15 86.0 °F 75.9 °F 29.61 in SE 9.0 mph 20.0 mph 72 % 0.00 in
18:20 85.6 °F 75.9 °F 29.61 in SE 11.0 mph 20.0 mph 73 % 0.00 in
18:25 85.5 °F 75.7 °F 29.61 in SSE 10.0 mph 20.0 mph 73 % 0.00 in
18:30 85.3 °F 76.1 °F 29.61 in ESE 9.0 mph 18.0 mph 74 % 0.00 in
18:35 84.9 °F 75.7 °F 29.62 in SSE 5.0 mph 19.0 mph 74 % 0.00 in
18:40 84.9 °F 75.7 °F 29.62 in ESE 10.0 mph 20.0 mph 74 % 0.00 in
18:45 84.7 °F 75.6 °F 29.62 in SSE 5.0 mph 20.0 mph 74 % 0.00 in
18:50 84.6 °F 75.4 °F 29.62 in ESE 10.0 mph 21.0 mph 74 % 0.00 in
18:55 84.4 °F 75.6 °F 29.62 in SSE 10.0 mph 21.0 mph 75 % 0.00 in
19:00 84.0 °F 75.2 °F 29.62 in ESE 10.0 mph 21.0 mph 75 % 0.00 in
19:05 83.8 °F 75.0 °F 29.62 in SSW 10.0 mph 19.0 mph 75 % 0.00 in
19:10 83.8 °F 75.4 °F 29.62 in SSE 14.0 mph 19.0 mph 76 % 0.00 in
19:15 83.7 °F 75.2 °F 29.63 in ESE 8.0 mph 17.0 mph 76 % 0.00 in
19:20 83.7 °F 75.2 °F 29.63 in South 9.0 mph 17.0 mph 76 % 0.00 in
19:25 83.5 °F 75.0 °F 29.63 in SSW 12.0 mph 17.0 mph 76 % 0.00 in
19:30 83.3 °F 75.4 °F 29.63 in SE 4.0 mph 16.0 mph 77 % 0.00 in
19:35 83.1 °F 75.2 °F 29.63 in South 7.0 mph 17.0 mph 77 % 0.00 in
19:40 82.9 °F 75.0 °F 29.63 in SSE 5.0 mph 17.0 mph 77 % 0.00 in
19:45 82.9 °F 75.0 °F 29.63 in SSE 11.0 mph 17.0 mph 77 % 0.00 in
19:50 82.8 °F 75.2 °F 29.64 in SSE 5.0 mph 16.0 mph 78 % 0.00 in
19:55 82.8 °F 75.2 °F 29.64 in SE 6.0 mph 16.0 mph 78 % 0.00 in
20:00 82.6 °F 75.0 °F 29.64 in SE 8.0 mph 16.0 mph 78 % 0.00 in
20:05 82.6 °F 75.4 °F 29.64 in SE 10.0 mph 16.0 mph 79 % 0.00 in
20:10 82.2 °F 75.0 °F 29.64 in SE 15.0 mph 16.0 mph 79 % 0.00 in
20:15 82.2 °F 75.4 °F 29.64 in SE 11.0 mph 16.0 mph 80 % 0.00 in
20:20 82.0 °F 75.2 °F 29.64 in SW 7.0 mph 16.0 mph 80 % 0.00 in
20:25 82.0 °F 75.2 °F 29.65 in ESE 14.0 mph 15.0 mph 80 % 0.00 in
20:30 81.9 °F 75.0 °F 29.65 in SSE 11.0 mph 15.0 mph 80 % 0.00 in
20:35 81.7 °F 74.8 °F 29.65 in SE 6.0 mph 14.0 mph 80 % 0.00 in
20:40 81.7 °F 74.8 °F 29.65 in SSE 5.0 mph 16.0 mph 80 % 0.00 in
20:45 81.7 °F 74.8 °F 29.66 in SE 11.0 mph 16.0 mph 80 % 0.00 in
20:50 81.5 °F 74.7 °F 29.66 in SSE 6.0 mph 18.0 mph 80 % 0.00 in
20:55 81.5 °F 75.0 °F 29.66 in SE 4.0 mph 18.0 mph 81 % 0.00 in
21:00 81.3 °F 74.8 °F 29.66 in SE 7.0 mph 18.0 mph 81 % 0.00 in
21:05 81.3 °F 75.4 °F 29.66 in ESE 7.0 mph 15.0 mph 82 % 0.00 in
21:10 81.3 °F 75.4 °F 29.66 in SSE 6.0 mph 15.0 mph 82 % 0.00 in
21:15 81.1 °F 75.2 °F 29.66 in SE 12.0 mph 16.0 mph 82 % 0.00 in
21:20 81.1 °F 75.2 °F 29.66 in South 7.0 mph 17.0 mph 82 % 0.00 in
21:22 81.1 °F 75.2 °F 29.66 in SE 10.0 mph 17.0 mph 82 % 0.00 in
21:27 81.0 °F 75.4 °F 29.67 in South 8.0 mph 17.0 mph 83 % 0.00 in
21:32 81.0 °F 75.4 °F 29.67 in SSW 7.0 mph 17.0 mph 83 % 0.00 in
21:37 81.1 °F 75.6 °F 29.67 in SE 5.0 mph 15.0 mph 83 % 0.00 in
21:42 81.0 °F 75.7 °F 29.67 in ESE 7.0 mph 15.0 mph 84 % 0.00 in
21:47 81.0 °F 75.7 °F 29.67 in ESE 6.0 mph 15.0 mph 84 % 0.00 in
21:52 81.0 °F 75.7 °F 29.68 in SSW 6.0 mph 15.0 mph 84 % 0.00 in
21:57 81.0 °F 75.7 °F 29.68 in SE 6.0 mph 15.0 mph 84 % 0.00 in
22:02 81.0 °F 75.7 °F 29.68 in SE 9.0 mph 15.0 mph 84 % 0.00 in
22:07 81.0 °F 75.7 °F 29.68 in SE 6.0 mph 16.0 mph 84 % 0.00 in
22:12 81.0 °F 75.7 °F 29.68 in ESE 8.0 mph 16.0 mph 84 % 0.00 in
22:17 81.0 °F 75.7 °F 29.68 in SE 6.0 mph 16.0 mph 84 % 0.00 in
22:22 81.0 °F 75.7 °F 29.68 in ESE 8.0 mph 16.0 mph 84 % 0.00 in
22:27 80.8 °F 75.6 °F 29.68 in East 8.0 mph 16.0 mph 84 % 0.00 in
22:32 80.8 °F 75.6 °F 29.68 in SE 10.0 mph 16.0 mph 84 % 0.00 in
22:42 80.8 °F 75.6 °F 29.68 in SE 7.0 mph 16.0 mph 84 % 0.00 in
22:47 80.8 °F 75.9 °F 29.68 in SE 9.0 mph 16.0 mph 85 % 0.00 in
22:52 81.0 °F 76.1 °F 29.68 in SE 11.0 mph 17.0 mph 85 % 0.00 in
22:57 81.0 °F 76.1 °F 29.68 in ESE 6.0 mph 17.0 mph 85 % 0.00 in
23:02 80.8 °F 75.9 °F 29.68 in SSE 7.0 mph 17.0 mph 85 % 0.00 in
23:07 80.8 °F 75.6 °F 29.68 in SSE 8.0 mph 18.0 mph 84 % 0.00 in
23:12 81.0 °F 76.1 °F 29.68 in East 13.0 mph 18.0 mph 85 % 0.00 in
23:17 80.8 °F 75.9 °F 29.68 in SE 7.0 mph 18.0 mph 85 % 0.00 in
23:22 80.8 °F 75.9 °F 29.68 in SSE 3.0 mph 19.0 mph 85 % 0.00 in
23:27 80.8 °F 75.9 °F 29.68 in SE 7.0 mph 19.0 mph 85 % 0.00 in
23:33 80.8 °F 75.9 °F 29.68 in SSE 13.0 mph 19.0 mph 85 % 0.00 in
23:38 80.8 °F 75.9 °F 29.68 in ESE 8.0 mph 18.0 mph 85 % 0.00 in
23:43 80.8 °F 75.9 °F 29.68 in SSW 8.0 mph 18.0 mph 85 % 0.00 in
23:48 80.6 °F 75.7 °F 29.68 in SE 9.0 mph 18.0 mph 85 % 0.00 in
23:53 80.4 °F 75.6 °F 29.67 in SSE 10.0 mph 18.0 mph 85 % 0.00 in
23:58 80.4 °F 75.6 °F 29.68 in SSE 9.0 mph 16.0 mph 85 % 0.00 in
Spring, Texas: Villages of Bridgestone
Compliments of Weather Underground - 2.75 mb

Script developed by  Jim McMurry - jmcmurry@mwt.net Adapted for the template by  Wim van der Kuil - Leuven-Template.eu

You find our weather info also at:

UK Metoffice

WeatherCloud

Weather Underground

Mid-South Weather Network

AWEKAS

Citizen Weather Observer Program (CWOP)

HAMweather, WeatherForYou, PWS Weather

Equipment we use:

Weather-station
Davis Vantage Vue

Weather-program
Meteohub

Weather-server
Debian 7.9 x86 (Guest)

Provider
DreamHost

Davis Vantage Vue

Meteohub

Debian 7.9 x86 (Guest)

DreamHost